QPF
0.03 0.02 0.02 0.02 0.02 0.02 0.02 0.02 0.02 0.03 0.03 0.02 0.02 0.02 0.01 0.01 0.02 0.02 0.01 0.00 0.00 0.00 0.00 0.00 0.00 0.00 0.00 0.00 0.00 0.00 0.00 0.00 0.00 0.00 0.00 0.00 0.01 0.01
0.01 0.01 0.01 0.01 0.00 0.00 0.01 0.01 0.01 0.01 0.01 0.01 0.01 0.01 0.00 0.00 0.01 0.01 0.01 0.01 0.00 0.00 0.00 0.00 0.00 0.00 0.00 0.00 0.00 0.00 0.00 0.00 0.00 0.00 0.00 0.00 0.00 0.01
0.02 0.01 0.01 0.00 0.00 0.00 0.00 0.00 0.00 0.00 0.01 0.01 0.01 0.01 0.01 0.00 0.00 0.01 0.01 0.01 0.00 0.00 0.00 0.00 0.00 0.00 0.00 0.00 0.00 0.00 0.00 0.00 0.00 0.00 0.00 0.00 0.00 0.00
0.02 0.01 0.01 0.01 0.00 0.00 0.00 0.00 0.00 0.00 0.00 0.01 0.01 0.01 0.01 0.00 0.00 0.00 0.00 0.00 0.00 0.00 0.00 0.00 0.00 0.00 0.00 0.00 0.00 0.00 0.00 0.00 0.00 0.00 0.00 0.00 0.00 0.00
0.01 0.01 0.01 0.01 0.01 0.01 0.01 0.01 0.01 0.00 0.01 0.01 0.01 0.01 0.00 0.01 0.01 0.01 0.00 0.00 0.00 0.00 0.00 0.00 0.00 0.00 0.00 0.00 0.00 0.00 0.00 0.00 0.00 0.00 0.00 0.00 0.00 0.00
0.01 0.01 0.01 0.01 0.01 0.01 0.01 0.01 0.01 0.01 0.01 0.01 0.01 0.01 0.02 0.01 0.02 0.02 0.01 0.01 0.01 0.00 0.00 0.00 0.00 0.00 0.00 0.00 0.00 0.00 0.00 0.00 0.00 0.00 0.00 0.00 0.00 0.00
0.01 0.01 0.00 0.00 0.01 0.01 0.01 0.01 0.01 0.01 0.02 0.02 0.03 0.03 0.04 0.04 0.03 0.01 0.01 0.02 0.02 0.01 0.01 0.01 0.01 0.01 0.02 0.00 0.00 0.00 0.00 0.00 0.00 0.00 0.00 0.00 0.00 0.00
0.02 0.01 0.00 0.00 0.00 0.01 0.00 0.00 0.00 0.01 0.01 0.02 0.04 0.05 0.06 0.05 0.03 0.02 0.02 0.02 0.03 0.02 0.02 0.02 0.01 0.02 0.03 0.01 0.00 0.00 0.00 0.00 0.00 0.00 0.00 0.00 0.00 0.00
0.03 0.02 0.01 0.01 0.00 0.01 0.00 0.01 0.01 0.00 0.00 0.00 0.03 0.04 0.05 0.04 0.02 0.02 0.03 0.03 0.04 0.04 0.03 0.05 0.04 0.04 0.02 0.00 0.00 0.00 0.00 0.00 0.00 0.00 0.00 0.00 0.00 0.00
0.02 0.02 0.03 0.03 0.01 0.00 0.01 0.03 0.04 0.03 0.01 0.01 0.02 0.03 0.02 0.01 0.01 0.01 0.02 0.05 0.08 0.07 0.04 0.05 0.04 0.04 0.02 0.01 0.00 0.00 0.00 0.00 0.00 0.00 0.00 0.00 0.00 0.00
0.01 0.01 0.02 0.02 0.00 0.00 0.02 0.05 0.06 0.05 0.01 0.00 0.00 0.00 0.00 0.00 0.00 0.00 0.03 0.06 0.07 0.07 0.04 0.03 0.04 0.04 0.04 0.03 0.01 0.00 0.00 0.00 0.00 0.00 0.00 0.00 0.00 0.00
0.04 0.03 0.00 0.00 0.00 0.00 0.02 0.04 0.03 0.03 0.02 0.02 0.02 0.02 0.02 0.01 0.01 0.01 0.05 0.06 0.06 0.06 0.05 0.03 0.04 0.04 0.04 0.03 0.03 0.02 0.02 0.01 0.00 0.00 0.00 0.00 0.00 0.00
0.05 0.04 0.01 0.00 0.00 0.00 0.00 0.01 0.00 0.00 0.01 0.03 0.03 0.03 0.03 0.04 0.04 0.04 0.06 0.06 0.05 0.04 0.03 0.03 0.03 0.04 0.05 0.05 0.03 0.02 0.03 0.04 0.03 0.03 0.01 0.00 0.00 0.00
0.06 0.03 0.01 0.00 0.00 0.00 0.00 0.00 0.00 0.00 0.01 0.02 0.02 0.03 0.03 0.03 0.03 0.03 0.04 0.04 0.04 0.03 0.02 0.03 0.05 0.05 0.06 0.06 0.04 0.03 0.02 0.02 0.03 0.04 0.05 0.02 0.01 0.00
0.02 0.00 0.00 0.00 0.00 0.01 0.00 0.00 0.00 0.01 0.01 0.01 0.02 0.02 0.02 0.01 0.01 0.01 0.02 0.03 0.03 0.02 0.02 0.02 0.04 0.05 0.06 0.06 0.04 0.03 0.03 0.02 0.02 0.03 0.05 0.04 0.03 0.02
0.02 0.01 0.00 0.00 0.00 0.00 0.00 0.01 0.01 0.01 0.01 0.01 0.01 0.01 0.02 0.01 0.01 0.01 0.02 0.02 0.03 0.03 0.02 0.01 0.01 0.03 0.05 0.05 0.04 0.04 0.03 0.02 0.02 0.02 0.04 0.04 0.03 0.02
0.02 0.02 0.02 0.01 0.01 0.01 0.01 0.01 0.01 0.01 0.01 0.01 0.01 0.01 0.01 0.01 0.01 0.01 0.01 0.01 0.01 0.02 0.01 0.01 0.01 0.01 0.02 0.03 0.03 0.02 0.02 0.02 0.03 0.03 0.03 0.04 0.03 0.02
0.01 0.02 0.02 0.01 0.01 0.00 0.00 0.00 0.00 0.01 0.01 0.01 0.01 0.01 0.01 0.00 0.00 0.01 0.01 0.01 0.01 0.01 0.01 0.01 0.01 0.01 0.02 0.01 0.01 0.00 0.01 0.02 0.02 0.02 0.02 0.03 0.03 0.02
0.01 0.01 0.01 0.00 0.00 0.00 0.00 0.00 0.00 0.00 0.00 0.00 0.01 0.00 0.00 0.00 0.00 0.00 0.00 0.00 0.00 0.00 0.00 0.00 0.00 0.01 0.02 0.02 0.01 0.00 0.00 0.01 0.01 0.01 0.02 0.02 0.02 0.01
0.01 0.00 0.00 0.00 0.00 0.00 0.00 0.00 0.00 0.00 0.00 0.00 0.00 0.00 0.00 0.00 0.00 0.00 0.00 0.00 0.00 0.00 0.00 0.00 0.00 0.00 0.00 0.01 0.01 0.01 0.00 0.00 0.00 0.01 0.01 0.01 0.01 0.01
0.00 0.00 0.00 0.00 0.00 0.00 0.00 0.00 0.00 0.00 0.00 0.00 0.00 0.00 0.00 0.00 0.00 0.00 0.00 0.00 0.00 0.00 0.00 0.00 0.00 0.00 0.00 0.00 0.01 0.01 0.01 0.00 0.00 0.00 0.00 0.00 0.00 0.01
0.00 0.00 0.00 0.00 0.00 0.00 0.00 0.00 0.00 0.00 0.00 0.00 0.00 0.00 0.00 0.00 0.00 0.00 0.00 0.00 0.00 0.00 0.00 0.00 0.00 0.00 0.00 0.00 0.00 0.00 0.01 0.00 0.00 0.00 0.00 0.00 0.00 0.00
0.00 0.00 0.00 0.00 0.00 0.00 0.00 0.00 0.00 0.00 0.00 0.00 0.00 0.00 0.00 0.00 0.00 0.00 0.00 0.00 0.00 0.00 0.00 0.00 0.00 0.00 0.00 0.00 0.00 0.00 0.00 0.00 0.01 0.00 0.00 0.00 0.00 0.00
MSLP
1019.67 1019.81 1019.96 1020.11 1020.28 1020.45 1020.64 1020.86 1021.10 1021.36 1021.63 1021.90 1022.16 1022.38 1022.58 1022.73 1022.87 1022.99 1023.13 1023.28 1023.46 1023.67 1023.88 1024.07 1024.23 1024.33 1024.35 1024.30 1024.18 1024.01 1023.81 1023.58 1023.35 1023.11 1022.85 1022.56 1022.23 1021.85
1020.13 1020.21 1020.29 1020.35 1020.42 1020.49 1020.59 1020.74 1020.92 1021.14 1021.39 1021.65 1021.90 1022.12 1022.31 1022.45 1022.56 1022.66 1022.77 1022.90 1023.07 1023.27 1023.49 1023.72 1023.92 1024.08 1024.17 1024.19 1024.13 1024.02 1023.85 1023.65 1023.43 1023.19 1022.92 1022.62 1022.27 1021.86
1020.63 1020.69 1020.72 1020.74 1020.74 1020.75 1020.79 1020.87 1021.01 1021.19 1021.41 1021.64 1021.86 1022.06 1022.20 1022.31 1022.37 1022.42 1022.48 1022.56 1022.68 1022.85 1023.06 1023.29 1023.51 1023.70 1023.83 1023.90 1023.90 1023.84 1023.72 1023.57 1023.38 1023.15 1022.90 1022.61 1022.26 1021.85
1021.11 1021.19 1021.22 1021.22 1021.21 1021.19 1021.20 1021.25 1021.34 1021.49 1021.67 1021.87 1022.05 1022.20 1022.30 1022.34 1022.35 1022.33 1022.32 1022.33 1022.38 1022.50 1022.66 1022.85 1023.06 1023.25 1023.41 1023.50 1023.54 1023.53 1023.46 1023.34 1023.19 1023.01 1022.79 1022.51 1022.19 1021.79
1021.57 1021.67 1021.73 1021.75 1021.75 1021.74 1021.74 1021.78 1021.86 1021.98 1022.13 1022.28 1022.42 1022.52 1022.56 1022.55 1022.49 1022.40 1022.31 1022.24 1022.22 1022.26 1022.35 1022.49 1022.65 1022.81 1022.95 1023.06 1023.12 1023.13 1023.09 1023.02 1022.92 1022.77 1022.59 1022.35 1022.06 1021.69
1021.96 1022.09 1022.19 1022.25 1022.28 1022.30 1022.32 1022.37 1022.44 1022.54 1022.66 1022.78 1022.88 1022.93 1022.92 1022.86 1022.74 1022.59 1022.43 1022.29 1022.20 1022.15 1022.17 1022.23 1022.33 1022.44 1022.54 1022.62 1022.68 1022.70 1022.69 1022.65 1022.58 1022.48 1022.34 1022.14 1021.87 1021.53
1022.28 1022.44 1022.58 1022.68 1022.75 1022.81 1022.86 1022.92 1022.99 1023.08 1023.17 1023.26 1023.31 1023.32 1023.28 1023.17 1023.02 1022.82 1022.62 1022.43 1022.27 1022.16 1022.10 1022.09 1022.11 1022.15 1022.20 1022.24 1022.27 1022.28 1022.28 1022.26 1022.23 1022.16 1022.05 1021.89 1021.66 1021.34
1022.53 1022.71 1022.87 1023.01 1023.12 1023.21 1023.29 1023.36 1023.42 1023.49 1023.56 1023.61 1023.62 1023.60 1023.53 1023.40 1023.23 1023.02 1022.80 1022.58 1022.38 1022.22 1022.10 1022.01 1021.96 1021.93 1021.92 1021.91 1021.90 1021.90 1021.89 1021.88 1021.86 1021.82 1021.74 1021.61 1021.41 1021.11
1022.73 1022.91 1023.08 1023.24 1023.38 1023.49 1023.58 1023.64 1023.70 1023.74 1023.76 1023.77 1023.76 1023.70 1023.61 1023.48 1023.30 1023.10 1022.88 1022.66 1022.45 1022.26 1022.09 1021.96 1021.84 1021.75 1021.67 1021.62 1021.57 1021.54 1021.52 1021.50 1021.50 1021.47 1021.42 1021.31 1021.14 1020.87
1022.91 1023.08 1023.26 1023.42 1023.56 1023.67 1023.75 1023.79 1023.81 1023.81 1023.79 1023.75 1023.70 1023.62 1023.51 1023.38 1023.22 1023.03 1022.83 1022.63 1022.42 1022.22 1022.03 1021.86 1021.70 1021.56 1021.43 1021.32 1021.24 1021.18 1021.14 1021.12 1021.12 1021.11 1021.08 1021.00 1020.85 1020.62
1023.11 1023.26 1023.43 1023.58 1023.70 1023.79 1023.84 1023.84 1023.81 1023.75 1023.68 1023.59 1023.49 1023.38 1023.26 1023.13 1022.98 1022.82 1022.65 1022.47 1022.28 1022.09 1021.89 1021.69 1021.50 1021.32 1021.15 1021.01 1020.89 1020.81 1020.75 1020.73 1020.73 1020.74 1020.72 1020.67 1020.55 1020.36
1023.35 1023.48 1023.62 1023.75 1023.84 1023.89 1023.89 1023.84 1023.75 1023.64 1023.50 1023.36 1023.22 1023.08 1022.94 1022.81 1022.67 1022.53 1022.38 1022.22 1022.05 1021.86 1021.66 1021.45 1021.24 1021.03 1020.84 1020.67 1020.53 1020.42 1020.36 1020.34 1020.34 1020.36 1020.36 1020.34 1020.26 1020.11
1023.63 1023.74 1023.85 1023.93 1023.98 1023.98 1023.93 1023.83 1023.68 1023.51 1023.32 1023.13 1022.95 1022.78 1022.63 1022.49 1022.36 1022.22 1022.09 1021.94 1021.77 1021.59 1021.38 1021.17 1020.94 1020.72 1020.50 1020.31 1020.16 1020.04 1019.97 1019.95 1019.95 1019.98 1020.01 1020.01 1019.97 1019.87
1023.93 1024.00 1024.07 1024.11 1024.11 1024.06 1023.96 1023.81 1023.62 1023.41 1023.18 1022.96 1022.74 1022.55 1022.38 1022.23 1022.09 1021.96 1021.82 1021.67 1021.50 1021.31 1021.10 1020.87 1020.64 1020.40 1020.18 1019.98 1019.81 1019.69 1019.61 1019.58 1019.59 1019.62 1019.66 1019.69 1019.69 1019.64
1024.20 1024.23 1024.24 1024.23 1024.18 1024.09 1023.95 1023.77 1023.56 1023.33 1023.08 1022.85 1022.62 1022.42 1022.24 1022.07 1021.92 1021.77 1021.61 1021.44 1021.26 1021.06 1020.84 1020.60 1020.36 1020.11 1019.88 1019.68 1019.50 1019.38 1019.29 1019.26 1019.26 1019.29 1019.34 1019.39 1019.41 1019.40
1024.38 1024.35 1024.31 1024.25 1024.16 1024.03 1023.88 1023.69 1023.48 1023.26 1023.02 1022.80 1022.58 1022.38 1022.18 1022.00 1021.83 1021.66 1021.48 1021.28 1021.08 1020.85 1020.62 1020.37 1020.12 1019.87 1019.64 1019.43 1019.25 1019.12 1019.02 1018.97 1018.97 1018.99 1019.04 1019.09 1019.13 1019.15
1024.43 1024.34 1024.24 1024.13 1024.02 1023.88 1023.73 1023.56 1023.37 1023.18 1022.98 1022.78 1022.59 1022.39 1022.20 1022.01 1021.81 1021.61 1021.39 1021.17 1020.93 1020.68 1020.43 1020.17 1019.92 1019.67 1019.44 1019.22 1019.05 1018.90 1018.79 1018.72 1018.70 1018.70 1018.73 1018.78 1018.83 1018.87
1024.34 1024.19 1024.04 1023.90 1023.77 1023.64 1023.51 1023.38 1023.25 1023.11 1022.96 1022.80 1022.63 1022.45 1022.26 1022.05 1021.82 1021.58 1021.33 1021.07 1020.80 1020.53 1020.26 1020.00 1019.74 1019.49 1019.26 1019.05 1018.86 1018.70 1018.58 1018.48 1018.42 1018.40 1018.41 1018.44 1018.48 1018.52
1024.13 1023.93 1023.76 1023.61 1023.48 1023.38 1023.29 1023.21 1023.14 1023.06 1022.96 1022.85 1022.70 1022.53 1022.33 1022.10 1021.84 1021.56 1021.27 1020.97 1020.67 1020.37 1020.09 1019.82 1019.56 1019.32 1019.09 1018.88 1018.68 1018.50 1018.35 1018.22 1018.13 1018.07 1018.04 1018.05 1018.07 1018.11
1023.86 1023.65 1023.47 1023.32 1023.22 1023.16 1023.13 1023.11 1023.10 1023.08 1023.03 1022.94 1022.81 1022.64 1022.41 1022.15 1021.85 1021.52 1021.18 1020.84 1020.51 1020.20 1019.90 1019.63 1019.37 1019.13 1018.91 1018.69 1018.48 1018.29 1018.10 1017.94 1017.81 1017.70 1017.63 1017.61 1017.61 1017.64
1023.61 1023.40 1023.24 1023.14 1023.08 1023.07 1023.10 1023.14 1023.18 1023.21 1023.19 1023.11 1022.98 1022.78 1022.52 1022.21 1021.85 1021.47 1021.09 1020.70 1020.34 1020.01 1019.70 1019.42 1019.17 1018.94 1018.71 1018.49 1018.27 1018.05 1017.84 1017.64 1017.46 1017.31 1017.20 1017.13 1017.11 1017.12
1023.43 1023.26 1023.15 1023.09 1023.10 1023.15 1023.24 1023.34 1023.42 1023.46 1023.45 1023.38 1023.21 1022.97 1022.66 1022.29 1021.87 1021.43 1020.99 1020.57 1020.18 1019.82 1019.50 1019.22 1018.97 1018.74 1018.51 1018.29 1018.05 1017.81 1017.57 1017.33 1017.12 1016.93 1016.77 1016.67 1016.61 1016.59
1023.34 1023.23 1023.19 1023.21 1023.28 1023.40 1023.54 1023.67 1023.78 1023.84 1023.82 1023.71 1023.50 1023.21 1022.83 1022.39 1021.91 1021.41 1020.92 1020.45 1020.03 1019.66 1019.33 1019.05 1018.80 1018.57 1018.34 1018.11 1017.87 1017.61 1017.35 1017.08 1016.83 1016.60 1016.41 1016.26 1016.16 1016.11
Thickness
5623 5622 5622 5621 5620 5620 5619 5615 5609 5604 5600 5599 5597 5592 5587 5583 5579 5576 5572 5568 5565 5560 5556 5553 5550 5546 5543 5540 5537 5534 5531 5528 5526 5525 5523 5521 5519 5518
5611 5610 5609 5609 5609 5609 5608 5605 5602 5597 5591 5589 5587 5581 5576 5573 5569 5566 5563 5561 5557 5552 5548 5544 5541 5537 5534 5531 5528 5524 5521 5518 5515 5513 5511 5509 5507 5506
5599 5598 5597 5597 5597 5597 5595 5593 5590 5587 5580 5578 5576 5570 5566 5563 5559 5557 5555 5553 5549 5545 5540 5536 5533 5529 5526 5522 5519 5515 5511 5508 5506 5503 5500 5498 5496 5494
5587 5587 5586 5586 5584 5583 5582 5580 5577 5575 5570 5566 5564 5561 5558 5555 5551 5549 5548 5546 5542 5538 5534 5530 5526 5522 5518 5514 5511 5507 5503 5500 5497 5494 5492 5489 5487 5484
5576 5575 5574 5573 5571 5570 5569 5568 5566 5564 5560 5557 5554 5552 5550 5547 5544 5542 5540 5538 5536 5533 5528 5524 5520 5516 5512 5508 5504 5500 5496 5493 5490 5487 5484 5481 5478 5476
5565 5564 5562 5560 5558 5557 5557 5555 5553 5551 5549 5546 5544 5542 5539 5538 5535 5531 5530 5529 5527 5526 5523 5520 5516 5512 5507 5502 5499 5494 5490 5487 5483 5480 5477 5474 5471 5468
5554 5553 5551 5548 5546 5545 5544 5541 5540 5538 5537 5535 5532 5530 5527 5525 5523 5522 5520 5519 5519 5519 5516 5514 5511 5507 5503 5499 5494 5490 5486 5481 5477 5474 5471 5468 5465 5463
5544 5543 5540 5539 5536 5534 5533 5530 5528 5527 5524 5523 5521 5518 5516 5515 5514 5513 5512 5510 5508 5510 5509 5507 5507 5503 5500 5496 5491 5487 5482 5478 5473 5470 5467 5464 5460 5458
5535 5534 5534 5529 5527 5525 5524 5522 5520 5518 5515 5513 5511 5509 5509 5508 5506 5505 5504 5503 5502 5504 5504 5501 5502 5499 5497 5493 5489 5484 5479 5475 5470 5466 5463 5460 5457 5454
5527 5525 5521 5518 5515 5514 5515 5515 5514 5512 5510 5506 5506 5505 5504 5502 5500 5499 5499 5499 5500 5501 5500 5496 5497 5495 5495 5491 5487 5482 5478 5473 5469 5464 5460 5457 5454 5452
5517 5514 5512 5508 5505 5505 5507 5506 5506 5504 5503 5502 5501 5500 5500 5498 5495 5493 5494 5493 5493 5496 5497 5494 5493 5492 5491 5488 5485 5481 5477 5473 5468 5464 5459 5456 5452 5450
5507 5504 5501 5499 5498 5497 5497 5497 5496 5495 5496 5497 5497 5498 5497 5496 5494 5490 5490 5489 5489 5489 5492 5490 5489 5488 5486 5486 5484 5481 5477 5473 5469 5465 5460 5456 5452 5448
5500 5497 5493 5492 5491 5490 5489 5489 5488 5487 5489 5492 5494 5495 5495 5493 5492 5490 5489 5488 5486 5486 5488 5488 5486 5484 5482 5481 5482 5481 5479 5475 5471 5466 5462 5457 5452 5447
5492 5490 5488 5486 5485 5485 5485 5485 5485 5485 5487 5489 5490 5490 5489 5489 5489 5488 5488 5488 5487 5487 5488 5487 5484 5483 5481 5479 5479 5480 5479 5477 5473 5468 5464 5459 5454 5448
5485 5484 5483 5482 5481 5482 5482 5481 5481 5482 5483 5484 5484 5485 5485 5486 5486 5486 5487 5488 5488 5488 5489 5488 5487 5485 5483 5480 5479 5479 5478 5477 5474 5470 5466 5461 5456 5451
5481 5481 5480 5480 5479 5478 5479 5479 5479 5480 5479 5479 5480 5481 5482 5483 5483 5484 5484 5485 5486 5487 5490 5490 5490 5488 5485 5484 5482 5480 5479 5476 5475 5472 5468 5464 5460 5455
5474 5478 5479 5480 5479 5479 5479 5479 5478 5478 5476 5476 5476 5476 5478 5479 5480 5482 5483 5484 5484 5485 5487 5490 5491 5491 5490 5487 5484 5482 5480 5478 5476 5474 5471 5467 5463 5459
5472 5476 5477 5477 5476 5475 5475 5475 5475 5473 5472 5472 5473 5474 5475 5476 5477 5479 5481 5482 5483 5485 5486 5489 5490 5490 5489 5489 5486 5484 5482 5479 5478 5476 5474 5469 5465 5462
5471 5475 5475 5474 5473 5472 5471 5470 5470 5469 5469 5470 5471 5471 5473 5474 5475 5477 5479 5481 5482 5484 5487 5489 5490 5488 5486 5485 5487 5486 5484 5482 5480 5478 5476 5472 5468 5465
5475 5475 5474 5472 5471 5469 5468 5467 5466 5466 5467 5467 5469 5470 5471 5473 5474 5477 5479 5481 5482 5485 5488 5490 5491 5491 5489 5488 5488 5490 5488 5486 5483 5480 5477 5476 5472 5467
5476 5474 5472 5471 5469 5467 5466 5466 5465 5465 5466 5466 5467 5469 5470 5472 5474 5477 5479 5482 5484 5487 5488 5491 5494 5495 5495 5494 5493 5494 5493 5491 5488 5483 5480 5477 5474 5471
5474 5473 5472 5470 5468 5467 5466 5465 5464 5464 5465 5466 5467 5468 5470 5472 5475 5477 5480 5483 5486 5489 5491 5494 5497 5499 5498 5497 5496 5496 5496 5494 5492 5488 5484 5481 5475 5473
5474 5472 5472 5471 5468 5466 5465 5464 5463 5463 5463 5463 5464 5466 5469 5472 5475 5479 5482 5486 5488 5490 5492 5494 5497 5499 5500 5500 5499 5498 5498 5497 5495 5490 5487 5487 5483 5479